Back to catalog

DIGUI TONGXIN SHIYAN WEI.

AliveMilitaryPO
NORAD 52718·PAYLOAD·🇨🇳 China
This satellite name has not been confirmed by official sources yet.

Launched May 20, 2022 from Jiuquan Satellite Launch Center

Loading…

Next Passes (next 24 hours)

TLE

FreshSource: Space-Track

Epoch: Sep 14, 2026, 13:39 UTC

1 52718U 22056C   26257.56936509  .00000102  00000-0  52560-4 0  9998
2 52718  86.0097 344.2278 0016840 102.0737 258.2330 14.04400888221436

Track DIGUI TONGXIN SHIYAN WEI. in real time with AllMySat

Download on the App Store